Bettles Field, AK

1:12 PM AKST on December 06, 2016 (GMT -0900)
Bettles

Weather History for PABT - February, 2014

Change the Weather History Date:

Monday, February 10, 2014

  Actual Average Record
Temperature  
Mean Temperature -17 °F -  
Max Temperature -7 °F 2 °F 33 °F (1968)
Min Temperature -27 °F -11 °F -58 °F (1976)
Degree Days  
Heating Degree Days 82    
Moisture  
Dew Point -23 °F    
Average Humidity 70    
Maximum Humidity 82    
Minimum Humidity 42    
Precipitation  
Precipitation 0.03 in - - ()
Snow  
Snow 0.00 in - - ()
Snow Depth 27.00 in    
Sea Level Pressure  
Sea Level Pressure 30.48 in    
Wind  
Wind Speed 2 mph (North)    
Max Wind Speed 7 mph    
Max Gust Speed -    
Visibility 9 miles    
Events Snow    
Averages and records for this station are not official NWS values.
T = Trace of Precipitation, MM = Missing Value Source: NWS Daily Summary

Daily Weather History Graph

Daily Weather History Graph

Search for Another Location

Airport or City:

Trip Planner

Search our weather history database for the weather conditions in past years. The results will help you decide how hot, cold, wet, or windy it might be!

Date:

Astronomy

Feb. 10, 2014 Rise Set
Actual Time 9:35 AM AKST 5:06 PM AKST
Civil Twilight 8:34 AM AKST 6:07 PM AKST
Nautical Twilight 7:31 AM AKST 7:10 PM AKST
Astronomical Twilight 6:29 AM AKST 8:12 PM AKST
Moon 12:47 PM AKST (2/10) 7:35 AM AKST (2/10)
Length of Visible Light 9h 32m
Length of Day
7h 31m
Waxing Gibbous, 85% of the Moon is Illuminated
Feb 10
Waxing Gibbous
Feb 14
Full
Feb 22
Last Quarter
Feb 28
New
Mar 8
First Quarter

Hourly Weather History & Observations

Time (AKST) Temp. Windchill Dew Point Humidity Pressure Visibility Wind Dir Wind Speed Gust Speed Precip Events Conditions
12:53 AM -25.1 °F - -29.9 °F 78% 30.67 in 10.0 mi Calm Calm - N/A   Clear
1:53 AM -29.0 °F -41.0 °F -34.1 °F 77% 30.66 in 10.0 mi NNW 3.5 mph - N/A   Clear
2:53 AM -18.0 °F -30.9 °F -24.0 °F 74% 30.64 in 10.0 mi NNW 4.6 mph - N/A   Clear
3:53 AM -22.0 °F - -26.0 °F 82% 30.66 in 10.0 mi Calm Calm - N/A   Clear
4:53 AM -27.0 °F - -32.1 °F 77% 30.65 in 10.0 mi Calm Calm - N/A   Clear
5:53 AM -20.9 °F -31.7 °F -27.0 °F 73% 30.64 in 10.0 mi NNW 3.5 mph - N/A   Clear
6:53 AM -20.0 °F -37.1 °F -26.0 °F 74% 30.63 in 10.0 mi NW 6.9 mph - N/A   Clear
7:53 AM -22.0 °F -35.6 °F -27.9 °F 74% 30.61 in 10.0 mi NNE 4.6 mph - N/A   Clear
8:53 AM -23.1 °F -36.8 °F -29.0 °F 74% 30.60 in 10.0 mi North 4.6 mph - N/A   Partly Cloudy
9:53 AM -20.9 °F -36.4 °F -27.0 °F 73% 30.59 in 10.0 mi NNW 5.8 mph - N/A   Partly Cloudy
10:53 AM -18.9 °F - -23.1 °F 81% 30.56 in 10.0 mi Calm Calm - N/A   Partly Cloudy
11:53 AM -14.1 °F -23.9 °F -20.9 °F 71% 30.55 in 10.0 mi North 3.5 mph - N/A   Partly Cloudy
12:53 PM -11.0 °F -22.8 °F -20.0 °F 64% 30.51 in 10.0 mi NNE 4.6 mph - N/A   Partly Cloudy
1:53 PM -9.0 °F - -18.0 °F 65% 30.50 in 10.0 mi Calm Calm - N/A   Partly Cloudy
2:53 PM -8.0 °F - -18.9 °F 59% 30.45 in 10.0 mi Calm Calm - N/A   Partly Cloudy
3:53 PM -9.0 °F - -20.0 °F 59% 30.43 in 10.0 mi Calm Calm - N/A   Scattered Clouds
4:53 PM -11.0 °F -22.8 °F -20.9 °F 62% 30.39 in 10.0 mi NNE 4.6 mph - N/A   Scattered Clouds
5:53 PM -14.1 °F - -20.9 °F 71% 30.37 in 10.0 mi Calm Calm - N/A   Scattered Clouds
6:53 PM -16.1 °F - -22.0 °F 74% 30.34 in 10.0 mi Calm Calm - N/A   Scattered Clouds
7:53 PM -16.1 °F - -22.0 °F 74% 30.32 in 10.0 mi Calm Calm - N/A   Scattered Clouds
8:53 PM -15.0 °F - -20.9 °F 75% 30.29 in 10.0 mi Calm Calm - N/A   Mostly Cloudy
9:53 PM -13.0 °F - -20.0 °F 71% 30.26 in 10.0 mi Calm Calm - N/A   Mostly Cloudy
10:53 PM -9.9 °F - -17.0 °F 71% 30.23 in 7.0 mi Calm Calm - N/A Snow Light Snow
11:40 PM -9.4 °F - -14.8 °F 77% 30.13 in 3.0 mi Calm Calm - N/A Snow Light Snow
11:53 PM -9.0 °F - -15.0 °F 75% 30.22 in 3.0 mi Calm Calm - N/A Snow Light Snow